Date,TemperatureHighF,TemperatureAvgF,TemperatureLowF,DewpointHighF,DewpointAvgF,DewpointLowF,HumidityHigh,HumidityAvg,HumidityLow,PressureMaxIn,PressureMinIn,WindSpeedMaxMPH,WindSpeedAvgMPH,GustSpeedMaxMPH,PrecipitationSumIn
2013-10-1,71.2,66.2,60.1,62.1,60.6,58.3,94,83,68,29.99,29.87,22,4,24,0.00
2013-10-2,73.6,66.9,55.4,63.5,61.6,53.2,94,83,67,30.05,29.88,19,4,20,0.00
2013-10-3,72.0,60.4,45.3,56.5,49.0,43.5,98,70,38,30.10,29.97,9,1,9,0.02
2013-10-4,71.1,65.3,59.7,68.4,63.9,55.9,98,95,88,30.02,29.94,12,1,12,1.03
2013-10-5,65.5,60.8,58.6,62.8,59.4,56.5,99,95,90,30.06,29.95,13,3,14,0.42
2013-10-6,81.9,69.0,58.6,71.2,64.6,57.0,100,87,64,29.95,29.63,20,2,22,0.42
2013-10-7,76.8,59.2,48.9,64.4,53.4,45.3,96,82,61,30.04,29.60,32,7,34,0.43
2013-10-8,66.6,53.5,41.4,51.1,45.7,40.6,99,78,46,30.31,30.04,9,1,11,0.01
2013-10-9,71.1,55.1,39.9,49.5,44.5,38.3,96,71,32,30.37,30.23,9,0,9,0.00
2013-10-10,70.2,54.5,40.3,48.7,42.3,37.2,96,68,31,30.25,30.11,11,1,11,0.00
2013-10-11,72.7,55.3,43.3,54.7,46.5,42.3,97,77,34,30.14,30.07,14,2,14,0.00
2013-10-12,77.5,59.2,40.3,57.7,44.6,38.8,100,65,26,30.15,30.06,16,1,16,0.00
2013-10-13,68.4,61.8,53.8,61.3,54.4,40.6,98,78,45,30.22,30.12,14,2,17,0.19
2013-10-14,66.0,56.2,44.2,60.6,49.6,43.0,97,80,51,30.32,30.22,15,1,15,0.06
2013-10-15,69.3,55.8,41.7,57.6,50.2,40.6,97,83,60,30.27,29.89,13,1,13,0.06
2013-10-16,68.7,62.7,54.1,60.1,56.3,48.0,95,80,62,29.89,29.70,22,6,23,0.50
2013-10-17,60.6,55.0,51.4,52.3,49.4,46.6,96,82,65,29.85,29.66,19,2,19,0.43
2013-10-18,59.7,53.6,46.9,49.5,44.4,36.5,92,72,45,29.87,29.70,29,7,29,0.43
2013-10-19,58.5,51.8,43.5,49.6,45.1,40.1,96,78,62,29.86,29.61,22,4,22,0.35
2013-10-20,53.8,47.7,42.4,45.7,41.0,36.7,94,78,63,29.95,29.75,20,4,20,0.00
2013-10-21,65.3,55.3,46.8,48.9,41.5,36.7,94,62,35,29.94,29.75,32,6,32,0.16
2013-10-22,50.0,44.9,40.6,48.9,34.7,26.1,96,69,49,29.83,29.73,33,7,34,0.34
2013-10-23,46.8,40.9,36.7,40.6,35.4,30.2,93,81,65,29.81,29.70,25,2,25,0.03
2013-10-24,47.5,39.7,34.2,35.8,32.9,28.0,90,78,51,30.02,29.79,30,6,37,0.00
2013-10-25,50.2,41.6,35.1,38.5,35.1,31.1,96,79,54,30.18,30.02,23,4,23,0.00
2013-10-26,45.5,42.9,38.3,41.2,35.4,29.7,92,75,58,30.10,29.75,39,11,44,0.46
2013-10-27,48.7,42.2,37.0,39.0,35.1,30.9,93,77,58,30.03,29.80,22,5,25,0.47
2013-10-28,49.8,42.8,27.9,39.2,31.6,20.7,91,66,41,30.38,30.01,18,3,18,0.00
2013-10-29,51.4,39.0,27.1,35.1,29.3,25.2,94,71,39,30.45,30.28,11,1,12,0.00
2013-10-30,63.3,47.4,37.0,42.3,38.7,34.7,96,74,40,30.28,30.06,8,0,8,0.01
2013-10-31,67.5,57.5,43.0,59.7,52.9,39.0,98,85,69,30.06,29.30,32,6,34,0.83